Location: Newark
(15.4608°S, 41.1635°W)
Time: 23:11:42
(UTC+00:00)

Hubble Space Telescope - Visible Passes

Search period start: 27 January 2021 00:00
Search period end: 06 February 2021 00:00
Orbit: 536 x 539 km, 28.5° (Epoch: 27 January)

Date Brightness Start Highest point End Pass type
(mag) Time Alt. Az. Time Alt. Az. Time Alt. Az.
27 Jan 3.4 06:25:06 13° S 06:25:18 13° S 06:27:24 10° SSE visible
27 Jan 3.4 08:04:44 10° SSW 08:07:20 16° S 08:09:57 10° SE visible
28 Jan 3.5 06:14:56 13° S 06:14:56 13° S 06:16:40 10° SSE visible
28 Jan 3.3 07:53:47 10° SSW 07:56:40 18° SSE 07:59:32 10° SE visible
29 Jan 3.7 06:04:51 12° SSE 06:04:51 12° SSE 06:06:01 10° SSE visible
29 Jan 3.1 07:42:49 10° SW 07:45:58 20° SSE 07:49:06 10° ESE visible
30 Jan 3.9 05:54:53 11° SSE 05:54:53 11° SSE 05:55:28 10° SE visible
30 Jan 2.9 07:31:50 10° SW 07:35:15 24° SSE 07:38:38 10° ESE visible
31 Jan 2.6 07:20:52 10° SW 07:24:30 29° SSE 07:28:08 10° E visible
01 Feb 2.2 07:10:45 15° SW 07:13:45 35° SSE 07:17:34 10° E visible
01 Feb 2.4 22:31:45 10° NNW 22:33:52 19° N 22:33:52 19° N visible
02 Feb 1.7 07:01:16 28° SSW 07:02:58 45° SSE 07:06:57 10° E visible
02 Feb 1.7 22:20:27 10° NNW 22:24:01 28° NNE 22:24:44 27° NE visible
03 Feb 1.1 06:51:56 58° S 06:52:10 60° SSE 06:56:16 10° ENE visible
03 Feb 1.3 22:09:18 10° NW 22:13:09 39° NNE 22:15:31 20° E visible
03 Feb 3.7 23:50:22 10° W 23:50:54 13° W 23:50:54 13° W visible
04 Feb 1.8 06:42:44 41° ENE 06:42:44 41° ENE 06:45:30 10° ENE visible
04 Feb 0.9 21:58:15 10° NW 22:02:18 54° NNE 22:06:11 11° ESE visible
04 Feb 3.2 23:39:46 10° W 23:41:33 21° WSW 23:41:33 21° WSW visible
05 Feb 3.1 06:33:35 17° ENE 06:33:35 17° ENE 06:34:38 10° ENE visible
05 Feb 2.7 08:09:22 10° WNW 08:11:30 14° NNW 08:13:37 10° N visible
05 Feb 0.7 21:47:19 10° WNW 21:51:28 75° NNE 21:55:36 10° ESE visible
05 Feb 2.8 23:29:13 10° WSW 23:32:03 25° SW 23:32:03 25° SW visible
